Weather in Makung

Taiwan     23°34′04″N   119°34′47″E
temp.,
°C
wind,
m/s
gust,
m/s
humid.,
%
clouds,
%
prec.,
mm/h
press.,
hPa
HPBL,
m
24 july, sat
sat2423:00+27n121489100 0.0 997776
02:00+28n111485100 0.0 996827
05:00+28n71181100 0.0 996446
08:00+28wnw6986100 0.1 997407
11:00+28w61085100 1.4 997454
14:00+28w678318 3.5 997281
17:00+28sw2384100 0.3 996158
20:00+28ssw4685100 0.9 997188
25 july, sun
sun2523:00+28ssw6987100 1.1 998274
02:00+28sw6989100 2.6 997299
05:00+28sw7108522 1.8 996294
08:00+28sw688693 5.4 997189
11:00+28sw688596 1.8 997203
14:00+29sw688797 2.2 996320
17:00+29sw7108580 0.0 996362
20:00+28ssw798688 0.6 997259
26 july, mon
mon2623:00+29sw91383100 1.4 997300
02:00+28wsw9148698 4.3 996308
05:00+28wsw101487100 2.9 995366
08:00+28wsw91386100 3.6 996449
11:00+29wsw91386100 0.1 996462
14:00+28wsw8118781 0.1 995459
17:00+28sw71088100 0.0 994376
20:00+28ssw71089100 0.8 995307
27 july, tue
tue2723:00+29ssw81084100 2.2 996201
02:00+29sw6985100 3.0 994226
05:00+29ssw5781100 1.8 994136
08:00+29s5682100 1.9 995118
11:00+29ssw6883100 0.1 995200
14:00+29s6983100 0.7 994219
17:00+29ssw71084100 0.1 993248
20:00+29ssw8118686 0.3 995264
28 july, wed
wed2823:00+29ssw81182100 1.1 996251
02:00+29ssw71183100 2.3 995268
05:00+28ssw7108598 1.8 996235
08:00+29ssw6985100 3.9 997233
11:00+29s71084100 0.6 998273
14:00+29s7108596 1.3 997287
17:00+29ssw81088100 0.8 997344
20:00+28ssw81189100 3.1 998341